TimeEDT,TemperatureF,Dew PointF,Humidity,Sea Level PressureIn,VisibilityMPH,Wind Direction,Wind SpeedMPH,Gust SpeedMPH,PrecipitationIn,Events,Conditions,WindDirDegrees,DateUTC
12:53 AM,71.1,66.9,87,30.09,10.0,Calm,Calm,-,N/A,,Clear,0,2013-06-20 04:53:00
1:53 AM,71.1,66.9,87,30.09,10.0,Calm,Calm,-,N/A,,Clear,0,2013-06-20 05:53:00
2:53 AM,70.0,66.9,90,30.09,10.0,Calm,Calm,-,N/A,,Clear,0,2013-06-20 06:53:00
3:53 AM,70.0,66.9,90,30.09,10.0,Calm,Calm,-,N/A,,Clear,0,2013-06-20 07:53:00
4:53 AM,70.0,66.9,90,30.10,10.0,Variable,3.5,-,N/A,,Clear,0,2013-06-20 08:53:00
5:53 AM,69.1,66.9,93,30.12,9.0,Calm,Calm,-,N/A,,Clear,0,2013-06-20 09:53:00
6:53 AM,70.0,66.9,90,30.15,9.0,Variable,3.5,-,N/A,,Clear,0,2013-06-20 10:53:00
7:22 AM,69.8,66.2,88,30.17,9.0,Variable,3.5,-,N/A,,Scattered Clouds,0,2013-06-20 11:22:00
7:31 AM,71.6,66.2,83,30.17,8.0,Variable,5.8,-,N/A,,Mostly Cloudy,0,2013-06-20 11:31:00
7:43 AM,71.6,66.2,83,30.17,9.0,Variable,4.6,-,N/A,,Scattered Clouds,0,2013-06-20 11:43:00
7:53 AM,72.0,66.9,84,30.17,9.0,Variable,5.8,-,N/A,,Partly Cloudy,0,2013-06-20 11:53:00
8:53 AM,75.0,64.0,69,30.18,10.0,NE,5.8,-,N/A,,Clear,40,2013-06-20 12:53:00
9:53 AM,77.0,61.0,58,30.19,10.0,ENE,6.9,-,N/A,,Clear,70,2013-06-20 13:53:00
10:53 AM,81.0,59.0,47,30.19,10.0,East,8.1,-,N/A,,Clear,80,2013-06-20 14:53:00
11:53 AM,82.9,61.0,47,30.19,10.0,Variable,3.5,-,N/A,,Clear,0,2013-06-20 15:53:00
12:53 PM,84.0,59.0,43,30.19,10.0,Variable,6.9,-,N/A,,Clear,0,2013-06-20 16:53:00
1:53 PM,84.9,57.9,40,30.19,10.0,ENE,8.1,-,N/A,,Clear,60,2013-06-20 17:53:00
2:53 PM,86.0,57.9,38,30.18,10.0,East,8.1,-,N/A,,Clear,80,2013-06-20 18:53:00
3:53 PM,87.1,60.1,40,30.16,10.0,Variable,4.6,-,N/A,,Scattered Clouds,0,2013-06-20 19:53:00
4:53 PM,87.1,60.1,40,30.15,10.0,Variable,6.9,-,N/A,,Scattered Clouds,0,2013-06-20 20:53:00
5:53 PM,86.0,60.1,41,30.14,10.0,Calm,Calm,-,N/A,,Scattered Clouds,0,2013-06-20 21:53:00
6:53 PM,84.9,60.1,43,30.14,10.0,East,4.6,-,N/A,,Scattered Clouds,80,2013-06-20 22:53:00
7:53 PM,82.9,60.1,46,30.14,10.0,Variable,4.6,-,N/A,,Clear,0,2013-06-20 23:53:00
8:53 PM,79.0,62.1,56,30.16,10.0,Calm,Calm,-,N/A,,Clear,0,2013-06-21 00:53:00
9:53 PM,75.9,63.0,64,30.17,10.0,Calm,Calm,-,N/A,,Clear,0,2013-06-21 01:53:00
10:53 PM,73.9,64.0,71,30.19,10.0,Calm,Calm,-,N/A,,Clear,0,2013-06-21 02:53:00
11:53 PM,75.0,62.1,64,30.19,10.0,Calm,Calm,-,N/A,,Clear,0,2013-06-21 03:53:00